• In Uzbekistan
  • List of Countries
  • For 7 days
  • Water Temperature
  • Weather Map
  • Weather Widgets
  • user-avatar
    Login

    Hourly Weather Mayrhofen

    Today, 23 September, Monday

    Time Temperature Precipitation Wind Pressure Humidity
    00:00 +8°C° 0 mm 1 mps 616 mmHg 89%
    01:00 +7°C° 0 mm 1 mps 616 mmHg 89%
    02:00 +7°C° 0 mm 1 mps 616 mmHg 89%
    03:00 +7°C° 0 mm 1 mps 616 mmHg 90%
    04:00 +7°C° 0 mm 1 mps 615 mmHg 90%
    05:00 +8°C° 0.1 mm 1 mps 616 mmHg 90%
    06:00 +8°C° 0.1 mm 1 mps 616 mmHg 91%
    07:00 +9°C° 0.1 mm 1 mps 616 mmHg 91%
    08:00 +9°C° 1.1 mm 1 mps 617 mmHg 93%
    09:00 +8°C° 1.1 mm 2 mps 617 mmHg 94%
    10:00 +7°C° 1.1 mm 2 mps 617 mmHg 96%
    11:00 +7°C° 3.3 mm 2 mps 617 mmHg 96%
    12:00 +6°C° 3.3 mm 2 mps 617 mmHg 96%
    13:00 +5°C° 3.3 mm 2 mps 617 mmHg 97%
    14:00 +5°C° 1.4 mm 2 mps 617 mmHg 96%
    15:00 +5°C° 1.4 mm 2 mps 617 mmHg 96%
    16:00 +5°C° 1.4 mm 2 mps 617 mmHg 95%
    17:00 +5°C° 0.1 mm 2 mps 617 mmHg 96%
    18:00 +5°C° 0.1 mm 2 mps 617 mmHg 96%
    19:00 +4°C° 0.1 mm 2 mps 617 mmHg 97%
    20:00 +4°C° 0 mm 2 mps 617 mmHg 97%
    21:00 +4°C° 0 mm 2 mps 617 mmHg 96%
    22:00 +5°C° 0 mm 1 mps 617 mmHg 96%
    23:00 +4°C° 0 mm 1 mps 617 mmHg 95%

    Tomorrow, 24 September, Tuesday

    Time Temperature Precipitation Wind Pressure Humidity
    00:00 +4°C° 0 mm 1 mps 617 mmHg 94%
    01:00 +3°C° 0 mm 1 mps 617 mmHg 93%
    02:00 +3°C° 0 mm 1 mps 616 mmHg 92%
    03:00 +2°C° 0 mm 1 mps 616 mmHg 91%
    04:00 +2°C° 0 mm 1 mps 616 mmHg 89%
    05:00 +3°C° 0 mm 1 mps 616 mmHg 88%
    06:00 +3°C° 0 mm 1 mps 616 mmHg 87%
    07:00 +4°C° 0 mm 1 mps 616 mmHg 86%
    08:00 +6°C° 0 mm 1 mps 617 mmHg 78%
    09:00 +9°C° 0 mm 1 mps 617 mmHg 71%
    10:00 +11°C° 0 mm 1 mps 618 mmHg 64%
    11:00 +12°C° 0 mm 1 mps 618 mmHg 59%
    12:00 +13°C° 0 mm 1 mps 618 mmHg 54%
    13:00 +14°C° 0 mm 1 mps 618 mmHg 49%
    14:00 +14°C° 0 mm 1 mps 618 mmHg 49%
    15:00 +14°C° 0 mm 1 mps 617 mmHg 49%
    16:00 +13°C° 0 mm 1 mps 617 mmHg 49%
    17:00 +11°C° 0 mm 1 mps 616 mmHg 59%
    18:00 +9°C° 0 mm 1 mps 615 mmHg 68%
    19:00 +7°C° 0 mm 1 mps 615 mmHg 78%
    20:00 +7°C° 0 mm 1 mps 615 mmHg 78%
    21:00 +6°C° 0 mm 1 mps 615 mmHg 78%
    22:00 +6°C° 0 mm 1 mps 615 mmHg 78%
    23:00 +6°C° 0 mm 1 mps 615 mmHg 78%

    Day after tomorrow, 25 September, Wednesday

    Time Temperature Precipitation Wind Pressure Humidity
    00:00 +5°C° 0 mm 0 mps 614 mmHg 79%
    01:00 +5°C° 0 mm 0 mps 614 mmHg 80%
    02:00 +5°C° 0.2 mm 0 mps 614 mmHg 83%
    03:00 +6°C° 0.2 mm 1 mps 614 mmHg 85%
    04:00 +6°C° 0.2 mm 1 mps 614 mmHg 88%
    05:00 +5°C° 0.2 mm 0 mps 614 mmHg 88%
    06:00 +5°C° 0.2 mm 0 mps 614 mmHg 87%
    07:00 +6°C° 0.2 mm 0 mps 614 mmHg 86%
    08:00 +7°C° 0.2 mm 0 mps 614 mmHg 83%
    09:00 +9°C° 0.2 mm 1 mps 615 mmHg 80%
    10:00 +9°C° 0.2 mm 1 mps 615 mmHg 77%
    11:00 +9°C° 0.6 mm 1 mps 615 mmHg 81%
    12:00 +8°C° 0.6 mm 1 mps 615 mmHg 85%
    13:00 +8°C° 0.6 mm 1 mps 614 mmHg 89%
    14:00 +7°C° 0.6 mm 1 mps 614 mmHg 91%
    15:00 +7°C° 0.6 mm 1 mps 614 mmHg 93%
    16:00 +7°C° 0.6 mm 1 mps 614 mmHg 94%
    17:00 +6°C° 0.2 mm 1 mps 614 mmHg 95%
    18:00 +6°C° 0.2 mm 1 mps 614 mmHg 96%
    19:00 +6°C° 0.2 mm 1 mps 614 mmHg 96%
    20:00 +5°C° 0 mm 1 mps 615 mmHg 96%
    21:00 +5°C° 0 mm 1 mps 615 mmHg 96%
    22:00 +5°C° 0 mm 1 mps 615 mmHg 96%
    23:00 +5°C° 0 mm 1 mps 615 mmHg 96%

    26 September, Thursday

    Time Temperature Precipitation Wind Pressure Humidity
    00:00 +4°C° 0 mm 1 mps 615 mmHg 96%
    01:00 +4°C° 0 mm 1 mps 615 mmHg 96%
    02:00 +3°C° 0 mm 1 mps 615 mmHg 95%
    03:00 +3°C° 0 mm 1 mps 615 mmHg 95%
    04:00 +2°C° 0 mm 1 mps 615 mmHg 94%
    05:00 +3°C° 0 mm 1 mps 616 mmHg 92%
    06:00 +4°C° 0 mm 1 mps 616 mmHg 90%
    07:00 +4°C° 0 mm 1 mps 616 mmHg 88%
    08:00 +6°C° 0 mm 1 mps 617 mmHg 81%
    09:00 +8°C° 0 mm 1 mps 618 mmHg 75%
    10:00 +10°C° 0 mm 1 mps 619 mmHg 68%
    11:00 +10°C° 0 mm 1 mps 619 mmHg 68%
    12:00 +11°C° 0 mm 1 mps 619 mmHg 68%
    13:00 +11°C° 0 mm 1 mps 619 mmHg 68%
    14:00 +11°C° 0 mm 1 mps 619 mmHg 68%
    15:00 +12°C° 0 mm 1 mps 619 mmHg 68%
    16:00 +11°C° 0 mm 0 mps 620 mmHg 68%
    17:00 +9°C° 0 mm 0 mps 619 mmHg 75%
    18:00 +7°C° 0 mm 0 mps 618 mmHg 83%
    19:00 +4°C° 0 mm 0 mps 617 mmHg 90%
    20:00 +4°C° 0 mm 0 mps 618 mmHg 90%
    21:00 +5°C° 0 mm 1 mps 618 mmHg 89%
    22:00 +5°C° 0 mm 1 mps 618 mmHg 88%
    23:00 +6°C° 0 mm 1 mps 618 mmHg 87%

    27 September, Friday

    Time Temperature Precipitation Wind Pressure Humidity
    00:00 +6°C° 0 mm 1 mps 618 mmHg 86%
    01:00 +6°C° 0 mm 1 mps 618 mmHg 85%
    02:00 +6°C° 0 mm 1 mps 618 mmHg 85%
    03:00 +6°C° 0 mm 1 mps 618 mmHg 85%
    04:00 +5°C° 0 mm 1 mps 618 mmHg 85%
    05:00 +6°C° 0 mm 1 mps 618 mmHg 85%
    06:00 +6°C° 0 mm 1 mps 618 mmHg 85%
    07:00 +6°C° 0 mm 1 mps 618 mmHg 85%
    08:00 +9°C° 0 mm 1 mps 619 mmHg 77%
    09:00 +11°C° 0 mm 1 mps 620 mmHg 69%
    10:00 +13°C° 0 mm 1 mps 621 mmHg 61%
    11:00 +14°C° 0 mm 2 mps 621 mmHg 58%
    12:00 +15°C° 0 mm 2 mps 621 mmHg 55%
    13:00 +15°C° 0 mm 2 mps 621 mmHg 52%
    14:00 +15°C° 0 mm 2 mps 620 mmHg 58%
    15:00 +14°C° 0 mm 2 mps 619 mmHg 63%
    16:00 +13°C° 0 mm 2 mps 619 mmHg 68%
    17:00 +11°C° 0 mm 1 mps 618 mmHg 75%
    18:00 +10°C° 0 mm 1 mps 618 mmHg 82%
    19:00 +8°C° 0 mm 1 mps 618 mmHg 89%
    20:00 +8°C° 0.1 mm 1 mps 618 mmHg 90%
    21:00 +8°C° 0.1 mm 1 mps 618 mmHg 91%
    22:00 +8°C° 0.1 mm 1 mps 618 mmHg 93%
    23:00 +8°C° 0.1 mm 1 mps 618 mmHg 94%

    28 September, Saturday

    Time Temperature Precipitation Wind Pressure Humidity
    00:00 +8°C° 0.1 mm 1 mps 618 mmHg 95%
    01:00 +8°C° 0.1 mm 1 mps 618 mmHg 96%
    02:00 +8°C° 0.2 mm 1 mps 617 mmHg 96%
    03:00 +8°C° 0.2 mm 1 mps 617 mmHg 97%
    04:00 +8°C° 0.2 mm 1 mps 617 mmHg 97%
    05:00 +8°C° 0.1 mm 1 mps 617 mmHg 97%
    06:00 +8°C° 0.1 mm 1 mps 617 mmHg 97%
    07:00 +8°C° 0.1 mm 1 mps 617 mmHg 97%
    08:00 +8°C° 0.2 mm 1 mps 617 mmHg 96%
    09:00 +8°C° 0.2 mm 1 mps 618 mmHg 95%
    10:00 +9°C° 0.2 mm 1 mps 618 mmHg 94%
    11:00 +9°C° 0.2 mm 1 mps 618 mmHg 94%
    12:00 +9°C° 0.2 mm 1 mps 618 mmHg 93%
    13:00 +8°C° 0.2 mm 2 mps 618 mmHg 92%
    14:00 +9°C° 0.2 mm 1 mps 617 mmHg 92%
    15:00 +9°C° 0.2 mm 1 mps 617 mmHg 92%
    16:00 +9°C° 0.2 mm 1 mps 617 mmHg 92%
    17:00 +8°C° 0.1 mm 1 mps 617 mmHg 94%
    18:00 +7°C° 0.1 mm 1 mps 617 mmHg 95%
    19:00 +6°C° 0.1 mm 0 mps 617 mmHg 97%
    20:00 +6°C° 0.1 mm 0 mps 617 mmHg 97%
    21:00 +6°C° 0.1 mm 0 mps 617 mmHg 97%
    22:00 +6°C° 0.1 mm 0 mps 617 mmHg 97%
    23:00 +6°C° 0.1 mm 0 mps 617 mmHg 97%
    Show more